Troy, AL

6:31 PM CST on February 18, 2018 (GMT -0600)
Troy Municipal

Weather History for KTOI - May, 2014

Change the Weather History Date:

Monday, May 12, 2014

  Actual Average Record
Temperature  
Mean Temperature 77 °F 70 °F  
Max Temperature 89 °F 83 °F 91 °F (2002)
Min Temperature 64 °F 57 °F 49 °F (2008)
Cooling Degree Days 12 6  
Month to date cooling degree days 72 57  
Year to date cooling degree days 155 134  
Growing Degree Days 25 (Base 50)    
Moisture  
Dew Point 66 °F    
Average Humidity 76    
Maximum Humidity 97    
Minimum Humidity 55    
Precipitation  
Precipitation 0.21 in 0.09 in 1.37 in (2012)
Month to date precipitation 1.54 1.12  
Year to date precipitation 26.26 20.27  
Sea Level Pressure  
Sea Level Pressure 30.13 in    
Wind  
Wind Speed 2 mph (East)    
Max Wind Speed 14 mph    
Max Gust Speed 18 mph    
Visibility 8 miles    
Events Rain , Thunderstorm    
T = Trace of Precipitation, MM = Missing Value Source: NWS Daily Summary

Daily Weather History Graph

Daily Weather History Graph

Search for Another Location

Airport or City:

Trip Planner

Search our weather history database for the weather conditions in past years. The results will help you decide how hot, cold, wet, or windy it might be!

Date:

Astronomy

May. 12, 2014 Rise Set
Actual Time 5:49 AM CDT 7:32 PM CDT
Civil Twilight 5:22 AM CDT 7:58 PM CDT
Nautical Twilight 4:50 AM CDT 8:30 PM CDT
Astronomical Twilight 4:16 AM CDT 9:04 PM CDT
Moon 5:36 PM CDT (5/12) 4:18 AM CDT (5/12)
Length of Visible Light 14h 36m
Length of Day
13h 43m
Waxing Gibbous, 95% of the Moon is Illuminated
May 12
Waxing Gibbous
May 14
Full
May 21
Last Quarter
May 28
New
Jun 5
First Quarter

Hourly Weather History & Observations

Time (CDT) Temp. Heat Index Dew Point Humidity Pressure Visibility Wind Dir Wind Speed Gust Speed Precip Events Conditions
12:53 AM 71.1 °F - 64.9 °F 81% 30.08 in 10.0 mi Calm Calm - N/A   Clear
1:53 AM 68.0 °F - 64.9 °F 90% 30.07 in 10.0 mi Calm Calm - N/A   Clear
2:53 AM 66.0 °F - 64.0 °F 93% 30.07 in 8.0 mi Calm Calm - N/A   Clear
3:53 AM 64.9 °F - 63.0 °F 93% 30.08 in 7.0 mi Calm Calm - N/A   Clear
4:33 AM 66.0 °F - 63.0 °F 90% 30.10 in 9.0 mi NNE 3.5 mph - N/A   Scattered Clouds
4:43 AM 66.0 °F - 64.0 °F 93% 30.10 in 10.0 mi NNE 4.6 mph - N/A   Mostly Cloudy
4:53 AM 66.9 °F - 64.0 °F 90% 30.09 in 10.0 mi Calm Calm - N/A   Overcast
5:19 AM 66.0 °F - 64.0 °F 93% 30.11 in 9.0 mi Calm Calm - N/A   Scattered Clouds
5:53 AM 64.0 °F - 62.1 °F 93% 30.12 in 6.0 mi Calm Calm - N/A   Clear
6:53 AM 68.0 °F - 66.0 °F 93% 30.14 in 6.0 mi Calm Calm - N/A   Partly Cloudy
7:00 AM 68.0 °F - 66.0 °F 93% 30.16 in 6.0 mi Calm Calm - N/A   Mostly Cloudy
7:12 AM 69.1 °F - 66.0 °F 90% 30.16 in 7.0 mi Calm Calm - N/A   Mostly Cloudy
7:29 AM 69.1 °F - 66.9 °F 93% 30.17 in 1.8 mi NNE 3.5 mph - N/A   Overcast
7:32 AM 69.1 °F - 66.9 °F 93% 30.17 in 1.2 mi NE 3.5 mph - N/A   Overcast
7:36 AM 70.0 °F - 66.9 °F 90% 30.17 in 0.8 mi NE 3.5 mph - N/A   Overcast
7:50 AM 69.8 °F - 68.0 °F 94% 30.17 in 0.8 mi Calm Calm - N/A   Overcast
7:53 AM 70.0 °F - 68.0 °F 93% 30.16 in 1.0 mi Calm Calm - N/A   Overcast
7:58 AM 70.0 °F - 68.0 °F 93% 30.18 in 1.5 mi Calm Calm - N/A   Overcast
8:00 AM 70.0 °F - 68.0 °F 93% 30.18 in 2.0 mi Calm Calm - N/A   Overcast
8:09 AM 70.0 °F - 68.0 °F 93% 30.17 in 4.0 mi Calm Calm - N/A   Overcast
8:18 AM 71.1 °F - 68.0 °F 90% 30.17 in 4.0 mi Calm Calm - N/A   Overcast
8:36 AM 72.0 °F - 69.1 °F 91% 30.18 in 5.0 mi South 3.5 mph - N/A   Overcast
8:53 AM 72.0 °F - 69.1 °F 91% 30.17 in 10.0 mi SSW 3.5 mph - N/A   Overcast
9:02 AM 73.0 °F - 68.0 °F 84% 30.18 in 10.0 mi SE 4.6 mph - N/A   Overcast
9:20 AM 75.0 °F - 69.1 °F 82% 30.18 in 10.0 mi SSE 6.9 mph - N/A   Mostly Cloudy
9:28 AM 77.0 °F - 69.1 °F 76% 30.18 in 10.0 mi Variable 3.5 mph - N/A   Scattered Clouds
9:53 AM 78.1 °F - 69.1 °F 74% 30.17 in 10.0 mi SE 4.6 mph - N/A   Partly Cloudy
10:53 AM 82.0 °F 85.5 °F 69.1 °F 65% 30.18 in 10.0 mi North - - N/A   Partly Cloudy
11:53 AM 86.0 °F 91.5 °F 71.1 °F 61% 30.17 in 10.0 mi North - - N/A   Mostly Cloudy
12:53 PM 86.0 °F 90.1 °F 69.1 °F 57% 30.15 in 10.0 mi Variable 4.6 mph - N/A   Scattered Clouds
1:53 PM 84.9 °F 87.6 °F 66.9 °F 55% 30.12 in 10.0 mi ESE 6.9 mph - N/A   Mostly Cloudy
2:25 PM 82.9 °F 85.8 °F 68.0 °F 60% 30.14 in 10.0 mi West 10.4 mph - N/A Thunderstorm Thunderstorm
2:53 PM 75.9 °F - 66.9 °F 74% 30.14 in 9.0 mi WSW 8.1 mph - 0.00 in Rain , Thunderstorm Light Thunderstorms and Rain
3:21 PM 71.1 °F - 64.9 °F 81% 30.16 in 2.0 mi ENE 9.2 mph - 0.15 in Rain , Thunderstorm Heavy Thunderstorms and Rain
3:51 PM 71.6 °F - 66.2 °F 83% 30.13 in 10.0 mi NNW 5.8 mph - 0.18 in Rain Light Rain
3:53 PM 71.1 °F - 66.9 °F 87% 30.12 in 10.0 mi North 5.8 mph - 0.18 in Rain Light Rain
4:23 PM 72.0 °F - 66.9 °F 84% 30.14 in 10.0 mi South 9.2 mph 18.4 mph 0.00 in Thunderstorm Mostly Cloudy
4:38 PM 72.0 °F - 66.9 °F 84% 30.14 in 10.0 mi SSE 5.8 mph - 0.00 in   Partly Cloudy
4:53 PM 72.0 °F - 63.0 °F 73% 30.12 in 10.0 mi South 5.8 mph - 0.00 in   Clear
5:53 PM 70.0 °F - 66.0 °F 87% 30.09 in 9.0 mi Calm Calm - 0.03 in Rain Light Rain
6:53 PM 71.1 °F - 66.9 °F 87% 30.08 in 10.0 mi ENE 5.8 mph - 0.00 in   Clear
7:53 PM 70.0 °F - 66.0 °F 87% 30.08 in 10.0 mi North 3.5 mph - N/A   Clear
8:53 PM 66.9 °F - 64.9 °F 93% 30.09 in 10.0 mi Calm Calm - N/A   Clear
9:53 PM 68.0 °F - 64.9 °F 90% 30.10 in 10.0 mi Calm Calm - N/A   Clear
10:53 PM 66.9 °F - 64.0 °F 90% 30.09 in 10.0 mi Calm Calm - N/A   Clear
11:53 PM 66.0 °F - 63.0 °F 90% 30.09 in 10.0 mi Calm Calm - N/A   Clear